Sigonella, Italy

7:30 PM CEST on May 23, 2018 (GMT +0200)
Sigonella Mil

Weather History for LICZ - April, 2014

Change the Weather History Date:

Friday, April 11, 2014

  Actual Average Record
Temperature  
Mean Temperature 60 °F -  
Max Temperature 74 °F 72 °F 77 °F (2013)
Min Temperature 46 °F 49 °F 37 °F (1997)
Degree Days  
Heating Degree Days 5    
Growing Degree Days 10 (Base 50)    
Moisture  
Dew Point 46 °F    
Average Humidity 67    
Maximum Humidity 100    
Minimum Humidity 23    
Precipitation  
Precipitation 0.00 in 0.04 in - ()
Sea Level Pressure  
Sea Level Pressure 30.08 in    
Wind  
Wind Speed 7 mph ()    
Max Wind Speed 15 mph    
Max Gust Speed -    
Visibility 6.1 miles    
Events      
Averages and records for this station are not official NWS values.
T = Trace of Precipitation, MM = Missing Value Source: Averaged Metar Reports

Daily Weather History Graph

Daily Weather History Graph

Search for Another Location

Airport or City:

Astronomy

Apr. 11, 2014 Rise Set
Actual Time 6:31 AM CEST 7:31 PM CEST
Civil Twilight 6:04 AM CEST 7:58 PM CEST
Nautical Twilight 5:33 AM CEST 8:30 PM CEST
Astronomical Twilight 5:00 AM CEST 9:03 PM CEST
Moon 3:59 PM CEST (4/11) 4:12 AM CEST (4/11)
Length of Visible Light 13h 53m
Length of Day
13h 00m
Waxing Gibbous, 85% of the Moon is Illuminated
Apr 11
Waxing Gibbous
Apr 15
Full
Apr 22
Last Quarter
Apr 29
New
May 7
First Quarter

Hourly Weather History & Observations

Time (CEST) Temp. Windchill Dew Point Humidity Pressure Visibility Wind Dir Wind Speed Gust Speed Precip Events Conditions
12:55 AM 46.4 °F 44.3 °F 46.4 °F 100% 30.12 in 6.2 mi West 4.6 mph - N/A   Partly Cloudy
2:00 AM 50 °F - 50 °F 100% 30.13 in 6 mi WNW 6.9 mph - -   Scattered Clouds
2:55 AM 50.0 °F - 50.0 °F 100% 30.09 in 6.2 mi NW 6.9 mph - N/A   Scattered Clouds
3:55 AM 48.2 °F - 42.8 °F 82% 30.09 in 6.2 mi NW 6.9 mph - N/A   Partly Cloudy
4:55 AM 50.0 °F - 46.4 °F 87% 30.12 in 6.2 mi NW 6.9 mph - N/A   Partly Cloudy
5:00 AM 50 °F - 47 °F 85% 30.13 in 6 mi NW 6.9 mph - -   Scattered Clouds
5:55 AM 48.2 °F - 48.2 °F 100% 30.09 in 6.2 mi WNW 4.6 mph - N/A   Partly Cloudy
6:55 AM 46.4 °F 43.5 °F 46.4 °F 100% 30.09 in 6.2 mi WNW 5.8 mph - N/A   Partly Cloudy
7:55 AM 48.2 °F - 48.2 °F 100% 30.12 in 6.2 mi NW 6.9 mph - N/A   Partly Cloudy
8:00 AM 48 °F - 48 °F 100% 30.13 in 6 mi NW 6.9 mph - -   Scattered Clouds
8:55 AM 57.2 °F - 51.8 °F 82% 30.09 in - WNW 8.1 mph - N/A   Clear
9:55 AM 62.6 °F - 55.4 °F 77% 30.09 in - WNW 9.2 mph - N/A   Clear
10:55 AM 64.4 °F - 51.8 °F 64% 30.09 in 6.2 mi West 9.2 mph - N/A   Partly Cloudy
11:00 AM 65 °F - 51 °F 50% 30.12 in 6 mi West 9.2 mph - -   Scattered Clouds
11:55 AM 68.0 °F - 48.2 °F 49% 30.09 in 6.2 mi West 8.1 mph - N/A   Partly Cloudy
12:55 PM 73.4 °F - 44.6 °F 36% 30.09 in 6.2 mi West 11.5 mph - N/A   Partly Cloudy
1:55 PM 73.4 °F - 44.6 °F 36% 30.06 in 6.2 mi West 15.0 mph - N/A   Partly Cloudy
2:00 PM 73 °F - 44 °F 24% 30.08 in 6 mi West 15.0 mph - -   Scattered Clouds
2:55 PM 73.4 °F - 42.8 °F 33% 30.06 in 6.2 mi West 12.7 mph - N/A   Partly Cloudy
3:55 PM 73.4 °F - 44.6 °F 36% 30.04 in 6.2 mi WSW 13.8 mph - N/A   Partly Cloudy
4:55 PM 71.6 °F - 41.0 °F 33% 30.04 in 6.2 mi WSW 12.7 mph - N/A   Partly Cloudy
5:00 PM 72 °F - 42 °F 23% 30.05 in 6 mi WSW 12.7 mph - -   Scattered Clouds
5:55 PM 69.8 °F - 39.2 °F 33% 30.04 in 6.2 mi WSW 11.5 mph - N/A   Partly Cloudy
6:55 PM 64.4 °F - 37.4 °F 37% 30.04 in 6.2 mi East 5.8 mph - N/A   Partly Cloudy
7:55 PM 59.0 °F - 37.4 °F 45% 30.04 in 6.2 mi ESE 3.5 mph - N/A   Partly Cloudy
8:00 PM 59 °F - 38 °F 34% 30.06 in 6 mi ESE 3.5 mph - -   Scattered Clouds
8:55 PM 57.2 °F - 41.0 °F 55% 30.06 in 6.2 mi West 3.5 mph - N/A   Partly Cloudy
9:55 PM 55.4 °F - 48.2 °F 77% 30.06 in - West 3.5 mph - N/A   Clear
10:55 PM 51.8 °F - 51.8 °F 100% 30.09 in - WNW 2.3 mph - N/A   Clear
11:00 PM 52 °F - 52 °F 98% 30.11 in 6 mi WNW 2.3 mph - -  
11:55 PM 53.6 °F - 53.6 °F 100% 30.09 in - NW 2.3 mph - N/A   Clear